SCP
-0 -0 -0 -0 -0 -0 -0 -0 -0 -0 -0 0 0 0 0 0 0 0 0 0 -0 0 0 0 0 0 0 0 0 0 0 0
-0 -0 -0 -0 -0 -0 -0 -0 -0 -0 -0 -0 0 0 0 0 0 0 -0 0 0 0 0 0 -0 -0 -0 -0 -0 0 0 0
-0 -0 -0 -0 -0 -0 -0 -0 -0 -0 -0 -0 0 0 0 0 0 -0 -0 0 -0 -0 -0 -0 -0 -0 -0 -0 -0 -0 0 -0
-0 -0 -0 -0 -0 -0 -0 -0 -0 -0 -0 0 0 0 0 0 -0 -0 -0 -0 -0 -0 -0 -0 -0 -0 -0 -0 -0 -0 0 -0
-0 -0 -0 0 0 -0 -0 -0 -0 -0 -0 0 0 0 0 0 0 -0 -0 -0 -0 -0 -0 -0 -0 -0 -0 -0 -0 -1 0 -0
-0 -0 -0 -0 -0 -0 0 0 -0 -0 -0 0 0 -0 0 -0 0 -0 -0 -0 -0 -0 -0 -0 -0 -0 -0 -1 -0 -0 -0 0
-0 -0 -0 -0 0 0 0 0 0 0 0 0 0 0 -0 0 0 -0 -0 -0 -0 -0 -0 -0 -0 -0 -0 0 0 0 0 0
-0 -0 -0 0 0 -0 0 -0 -0 0 0 0 0 -0 0 0 0 0 0 0 0 -0 -0 0 0 0 0 0 0 0 -0 -0
-0 -0 -0 0 0 0 0 -0 -0 -0 0 -0 0 -0 -0 0 0 0 0 0 0 0 0 0 0 0 0 0 0 0 -0 -0
0 0 0 0 0 0 0 -0 -0 -0 -0 -0 0 0 0 0 0 0 0 0 0 0 0 0 0 0 0 0 0 0 -0 0
0 0 -0 0 0 0 0 0 0 0 -0 0 0 0 0 0 0 0 0 0 0 0 0 0 0 0 0 0 0 0 0 0
0 0 0 0 0 0 0 0 0 0 -0 0 0 0 0 0 0 0 0 0 0 0 0 0 0 0 0 0 0 0 0 0
0 0 0 0 0 0 0 0 0 0 0 0 0 0 0 0 0 0 0 0 0 0 0 0 0 0 0 0 0 0 0 0
0 0 0 0 0 0 0 0 0 0 0 0 0 0 0 0 0 0 0 0 0 0 0 0 0 0 0 0 0 0 0 0
0 0 0 0 0 0 0 0 0 0 0 0 0 0 0 0 0 0 0 0 0 0 0 0 0 0 0 0 0 0 0 0
0 0 0 0 0 0 0 0 0 0 0 0 0 0 0 0 0 0 0 0 0 0 0 0 0 0 0 0 0 0 0 0
0 1 0 0 0 0 0 0 0 0 0 0 0 0 0 0 0 0 0 0 0 0 0 0 0 0 0 0 0 0 0 0
1 1 0 0 0 0 0 0 0 0 0 0 0 0 0 0 0 0 0 0 0 0 0 0 0 0 0 0 0 0 0 0
0 0 0 0 0 0 0 0 0 0 0 0 0 0 0 0 0 0 0 0 0 0 0 0 0 0 0 0 0 0 0 0
Wind_Speed_500mb
54 53 52 50 50 50 48 45 41 39 39 39 36 33 29 24 21 20 19 19 19 20 21 20 20 22 24 26 23 19 13 14
55 53 53 52 51 51 47 45 40 38 36 34 32 29 24 20 17 16 17 18 18 18 18 17 16 17 18 20 20 17 15 16
51 54 53 52 51 49 46 43 39 36 34 30 27 23 19 17 15 16 16 17 17 17 17 16 15 15 17 20 19 17 11 15
43 53 52 51 50 47 43 40 37 32 31 28 24 21 18 16 15 14 15 16 17 19 20 21 20 21 23 19 17 15 9 15
36 50 52 50 47 45 42 36 33 31 28 25 22 19 18 19 16 17 16 16 17 18 18 20 22 18 18 20 19 17 12 17
35 51 50 48 45 41 37 34 30 28 25 23 21 21 21 15 12 12 18 19 15 15 18 21 16 13 12 12 9 15 27 24
40 42 45 48 45 40 33 29 27 24 22 20 20 23 17 8 4 8 10 13 15 16 12 16 18 11 7 7 9 18 25 27
41 45 35 41 39 31 30 24 26 24 22 24 23 25 21 12 5 3 13 12 4 5 10 9 14 1 4 12 16 16 15 9
57 62 48 48 42 39 26 15 27 26 20 13 5 13 20 21 16 8 11 12 10 13 8 5 10 9 17 23 5 17 22 14
64 58 59 59 60 46 37 26 21 18 19 15 24 23 31 35 18 23 18 19 19 24 26 28 29 31 23 13 11 11 22 17
65 64 62 52 66 44 44 38 31 37 38 39 38 33 28 38 33 33 37 35 36 37 38 35 30 28 23 19 24 21 17 12
67 68 64 57 64 54 54 52 46 49 43 41 42 43 36 44 38 35 42 40 35 33 33 29 25 27 28 24 24 24 20 18
75 66 56 54 53 64 49 55 54 48 48 48 51 46 41 37 37 39 41 36 34 37 34 29 26 27 29 31 26 23 20 22
67 70 56 49 53 59 51 52 52 50 44 51 54 46 39 35 35 39 37 32 33 35 34 31 32 29 28 27 17 17 20 19
68 72 69 56 54 60 49 55 50 52 53 51 45 36 32 29 29 35 34 31 32 34 34 34 35 35 25 16 12 21 19 17
73 72 76 68 61 66 59 59 53 54 54 50 44 35 30 26 26 33 31 29 31 33 34 30 24 26 19 9 20 29 23 21
76 75 78 68 62 59 63 54 47 49 51 48 37 32 31 28 26 29 30 29 34 32 26 20 17 21 13 13 23 32 25 22
74 71 77 66 55 54 49 54 50 49 48 36 33 28 23 24 25 27 28 26 30 23 18 17 20 24 14 11 15 24 18 12
69 60 66 59 55 53 54 52 53 53 48 36 33 23 22 22 21 20 21 22 22 20 16 17 22 23 20 18 15 16 14 30
Wind_Direction_500mb
149 152 151 148 143 142 143 137 136 137 138 136 135 133 129 122 114 104 94 88 85 82 77 74 70 67 76 79 90 107 99 87
151 154 154 152 148 148 147 143 143 143 144 142 142 138 133 123 109 96 90 81 73 68 70 70 69 70 71 75 83 94 98 94
158 159 158 155 152 154 153 150 150 149 149 148 146 140 133 120 106 97 86 79 71 66 65 68 72 75 74 72 67 72 81 111
164 163 161 158 157 158 158 157 155 153 148 147 145 139 129 114 98 83 78 69 63 62 68 70 72 80 80 73 63 73 38 70
173 168 165 162 162 163 164 162 156 152 151 149 146 134 118 99 92 58 76 64 56 54 59 67 71 82 80 62 69 61 31 20
162 170 166 165 165 166 167 167 165 160 156 155 148 133 112 100 74 85 66 60 55 53 65 73 77 80 41 14 356 0 1 349
163 168 167 168 168 166 169 172 173 166 160 158 152 147 127 117 136 48 18 64 56 53 66 60 48 4 347 10 16 23 16 37
179 165 169 159 158 156 157 172 180 169 156 157 168 163 163 141 210 286 318 313 65 22 61 9 358 332 272 282 293 344 322 356
164 172 174 168 160 180 169 150 173 156 166 186 182 226 192 170 176 228 222 165 124 127 149 161 247 267 269 280 234 328 295 276
174 178 177 179 166 176 193 169 151 159 178 183 203 194 191 173 185 197 192 181 202 210 214 229 245 249 262 252 214 296 280 283
175 181 185 187 170 175 177 172 178 168 181 195 202 212 216 199 193 206 214 222 233 236 241 247 244 251 261 252 226 239 268 282
178 187 186 177 181 175 172 183 182 182 191 200 209 220 225 217 209 217 229 234 237 245 245 248 254 263 266 258 245 242 253 241
174 177 185 189 192 187 184 182 192 194 202 213 220 225 234 225 213 223 228 233 240 246 247 248 257 262 270 265 263 254 234 226
180 182 182 190 190 189 192 191 190 198 202 218 225 227 226 216 218 224 230 235 244 256 267 277 278 278 271 275 265 184 171 233
187 181 184 187 190 183 186 194 190 196 205 219 228 224 220 213 213 228 233 241 255 268 275 283 285 277 265 274 222 165 163 206
192 189 192 194 192 195 189 190 193 201 210 216 224 228 235 225 213 234 244 251 261 267 276 277 266 253 252 256 173 157 151 186
201 196 197 199 198 195 193 194 198 205 212 220 224 237 233 228 225 235 246 256 261 266 270 258 224 222 216 192 171 167 156 149
204 197 196 200 193 188 188 191 187 200 211 219 230 237 234 228 228 234 246 250 259 258 248 222 200 204 190 159 168 183 176 186
203 194 195 197 199 197 194 192 200 206 208 217 234 229 242 242 235 231 229 232 235 243 234 206 193 201 198 176 151 132 132 163
Wind_Speed_850mb
54 53 52 50 50 50 48 45 41 39 39 39 36 33 29 24 21 20 19 19 19 20 21 20 20 22 24 26 23 19 13 14
55 53 53 52 51 51 47 45 40 38 36 34 32 29 24 20 17 16 17 18 18 18 18 17 16 17 18 20 20 17 15 16
51 54 53 52 51 49 46 43 39 36 34 30 27 23 19 17 15 16 16 17 17 17 17 16 15 15 17 20 19 17 11 15
43 53 52 51 50 47 43 40 37 32 31 28 24 21 18 16 15 14 15 16 17 19 20 21 20 21 23 19 17 15 9 15
36 50 52 50 47 45 42 36 33 31 28 25 22 19 18 19 16 17 16 16 17 18 18 20 22 18 18 20 19 17 12 17
35 51 50 48 45 41 37 34 30 28 25 23 21 21 21 15 12 12 18 19 15 15 18 21 16 13 12 12 9 15 27 24
40 42 45 48 45 40 33 29 27 24 22 20 20 23 17 8 4 8 10 13 15 16 12 16 18 11 7 7 9 18 25 27
41 45 35 41 39 31 30 24 26 24 22 24 23 25 21 12 5 3 13 12 4 5 10 9 14 1 4 12 16 16 15 9
57 62 48 48 42 39 26 15 27 26 20 13 5 13 20 21 16 8 11 12 10 13 8 5 10 9 17 23 5 17 22 14
64 58 59 59 60 46 37 26 21 18 19 15 24 23 31 35 18 23 18 19 19 24 26 28 29 31 23 13 11 11 22 17
65 64 62 52 66 44 44 38 31 37 38 39 38 33 28 38 33 33 37 35 36 37 38 35 30 28 23 19 24 21 17 12
67 68 64 57 64 54 54 52 46 49 43 41 42 43 36 44 38 35 42 40 35 33 33 29 25 27 28 24 24 24 20 18
75 66 56 54 53 64 49 55 54 48 48 48 51 46 41 37 37 39 41 36 34 37 34 29 26 27 29 31 26 23 20 22
67 70 56 49 53 59 51 52 52 50 44 51 54 46 39 35 35 39 37 32 33 35 34 31 32 29 28 27 17 17 20 19
68 72 69 56 54 60 49 55 50 52 53 51 45 36 32 29 29 35 34 31 32 34 34 34 35 35 25 16 12 21 19 17
73 72 76 68 61 66 59 59 53 54 54 50 44 35 30 26 26 33 31 29 31 33 34 30 24 26 19 9 20 29 23 21
76 75 78 68 62 59 63 54 47 49 51 48 37 32 31 28 26 29 30 29 34 32 26 20 17 21 13 13 23 32 25 22
74 71 77 66 55 54 49 54 50 49 48 36 33 28 23 24 25 27 28 26 30 23 18 17 20 24 14 11 15 24 18 12
69 60 66 59 55 53 54 52 53 53 48 36 33 23 22 22 21 20 21 22 22 20 16 17 22 23 20 18 15 16 14 30
Wind_Direction_850mb
149 152 151 148 143 142 143 137 136 137 138 136 135 133 129 122 114 104 94 88 85 82 77 74 70 67 76 79 90 107 99 87
151 154 154 152 148 148 147 143 143 143 144 142 142 138 133 123 109 96 90 81 73 68 70 70 69 70 71 75 83 94 98 94
158 159 158 155 152 154 153 150 150 149 149 148 146 140 133 120 106 97 86 79 71 66 65 68 72 75 74 72 67 72 81 111
164 163 161 158 157 158 158 157 155 153 148 147 145 139 129 114 98 83 78 69 63 62 68 70 72 80 80 73 63 73 38 70
173 168 165 162 162 163 164 162 156 152 151 149 146 134 118 99 92 58 76 64 56 54 59 67 71 82 80 62 69 61 31 20
162 170 166 165 165 166 167 167 165 160 156 155 148 133 112 100 74 85 66 60 55 53 65 73 77 80 41 14 356 0 1 349
163 168 167 168 168 166 169 172 173 166 160 158 152 147 127 117 136 48 18 64 56 53 66 60 48 4 347 10 16 23 16 37
179 165 169 159 158 156 157 172 180 169 156 157 168 163 163 141 210 286 318 313 65 22 61 9 358 332 272 282 293 344 322 356
164 172 174 168 160 180 169 150 173 156 166 186 182 226 192 170 176 228 222 165 124 127 149 161 247 267 269 280 234 328 295 276
174 178 177 179 166 176 193 169 151 159 178 183 203 194 191 173 185 197 192 181 202 210 214 229 245 249 262 252 214 296 280 283
175 181 185 187 170 175 177 172 178 168 181 195 202 212 216 199 193 206 214 222 233 236 241 247 244 251 261 252 226 239 268 282
178 187 186 177 181 175 172 183 182 182 191 200 209 220 225 217 209 217 229 234 237 245 245 248 254 263 266 258 245 242 253 241
174 177 185 189 192 187 184 182 192 194 202 213 220 225 234 225 213 223 228 233 240 246 247 248 257 262 270 265 263 254 234 226
180 182 182 190 190 189 192 191 190 198 202 218 225 227 226 216 218 224 230 235 244 256 267 277 278 278 271 275 265 184 171 233
187 181 184 187 190 183 186 194 190 196 205 219 228 224 220 213 213 228 233 241 255 268 275 283 285 277 265 274 222 165 163 206
192 189 192 194 192 195 189 190 193 201 210 216 224 228 235 225 213 234 244 251 261 267 276 277 266 253 252 256 173 157 151 186
201 196 197 199 198 195 193 194 198 205 212 220 224 237 233 228 225 235 246 256 261 266 270 258 224 222 216 192 171 167 156 149
204 197 196 200 193 188 188 191 187 200 211 219 230 237 234 228 228 234 246 250 259 258 248 222 200 204 190 159 168 183 176 186
203 194 195 197 199 197 194 192 200 206 208 217 234 229 242 242 235 231 229 232 235 243 234 206 193 201 198 176 151 132 132 163